Flag for Germany Weather past 2 weeks in Bingen am Rhein, Rhineland-Palatinate, Germany

Now
43 °F

Overcast.


Feels Like: 43 °F
Forecast: 33 / 56 °F
Wind: 2 mph from Southwest

Location: Wiesbaden Airport

Current Time: Mar 27, 2015 at 11:41:14 PM

Latest Report: Mar 27, 2015 at 10:58 PM


Visibility: N/A

Pressure: 30.23 "Hg

Humidity: 76%

Dew point: 36 °F

Location of Bingen am RheinLocation

Historic Weather in Bingen am Rhein — Graph

°F

Bingen am Rhein temperature yesterday

Maximum temperature yesterday: 52 °F (at 3:58 PM)
Minimum temperature yesterday: 41 °F (at 7:59 PM)
Average temperature yesterday: 45 °F

Past Weeks' High & Low Weather Summary

 TemperatureHumidityPressure
High66 °F (Mar 18, 3:58 PM)100% (Mar 15, 5:58 AM)30.36 "Hg (Mar 15, 5:58 AM)
Low31 °F (Mar 23, 4:58 AM)40% (Mar 18, 3:58 PM)29.60 "Hg (Mar 25, 2:58 PM)
Average45 °F72%30.11 "Hg
* Reported Mar 12 9:58 PM — Mar 27 9:58 PM, Bingen am Rhein, Weather by CustomWeather, © 2015

Note: Actual official high and low records may vary slightly from our data, if they occured in-between our weather recording intervals... More about our weather records

Advertising

Bingen am Rhein weather history for previous 24 hours

 ConditionsComfort  
Time TempWeatherWind HumidityBarometerVisibility
9:58 PM
Fri, Mar 27
45 °FOvercast.2 mph66%30.23 "HgN/A
8:58 PM46 °FOvercast.3 mph62%30.22 "HgN/A
7:58 PM46 °FPassing clouds.6 mph59%30.20 "HgN/A
6:58 PM48 °FOvercast.8 mph54%30.17 "HgN/A
5:58 PM49 °FMostly cloudy.8 mph52%30.16 "HgN/A
4:58 PM50 °FOvercast.14 mph50%30.14 "HgN/A
3:58 PM50 °FOvercast.10 mph52%30.12 "HgN/A
2:58 PM49 °FOvercast.13 mph54%30.11 "HgN/A
1:58 PM48 °FOvercast.13 mph61%30.10 "HgN/A
12:58 PM49 °FCloudy.16 mph59%30.09 "HgN/A
11:58 AM50 °FCloudy.14 mph62%30.08 "HgN/A
10:58 AM47 °FPartly sunny.10 mph68%30.06 "HgN/A
9:58 AM45 °FMostly cloudy.13 mph70%30.05 "HgN/A
8:58 AM45 °FPartly sunny.15 mph76%30.03 "HgN/A
7:58 AM41 °FPassing clouds.6 mph89%30.01 "HgN/A
6:58 AM39 °FPartly sunny.8 mph99%29.98 "HgN/A
5:58 AM37 °FClear.7 mph100%29.95 "HgN/A
5:04 AM39 °FPartly cloudy.8 mph100%29.92 "HgN/A
3:58 AM39 °FClear.No wind99%29.90 "HgN/A
2:58 AM43 °FPassing clouds.6 mph93%29.88 "HgN/A
1:58 AM41 °FMostly cloudy.7 mph93%29.88 "HgN/A
12:58 AM43 °FOvercast.10 mph87%29.86 "HgN/A
11:58 PM
Thu, Mar 26
42 °FOvercast.9 mph89%29.86 "HgN/A
Weather by CustomWeather, © 2015

See weather overviewHow to use our weather pages